User: anonymous   Login
Location: Oakhurst
(33.6448°N, 111.9543°W)
Time: 14:01:14
(UTC+00:00)
Language:

EO-79 - Orbit

View from above orbital plane
View from above orbital plane
View from above satellite
View from above satellite

Ground track
Ground track

The orbit data is extracted from the following two-line orbital elements,

1 40025U 14033R   21214.77287684  .00000345  00000-0  42220-4 0  9997
2 40025  97.9326 145.5839 0013194  31.9069 328.2944 14.89489471386318
Epoch (UTC): 02 August 2021 18:32:56
Eccentricity: 0.0013194
inclination: 97.9326°
perigee height: 590 km
apogee height: 609 km
right ascension of ascending node: 145.5839°
argument of perigee: 31.9069°
revolutions per day: 14.89489471
mean anomaly at epoch: 328.2944°
orbit number at epoch: 38631

The dashed part of the orbit path shows where the satellite is in the earth's shadow,  

DLR